Tracking 35331 objects as of 14-Sep-2026
HD Live streaming from Space Station
objects crossing your sky now

DIAMANT B-P4 DEB


DIAMANT B-P4 DEB is no longer on orbit


NORAD ID: 8035
Int'l Code: 1975-039G
Launch date: May 17, 1975
Source: France (FR)
Launch site: FRENCH GUIANA (FRGUI)
Decay date: 1978-01-29

Note: This is SATELLITE DEBRIS
Your satellite tracking list
Your tracking list is empty




NASA's NSSDC Master Catalog

Two Line Element Set (TLE):
1 08035U 75039  G 75216.80595970  .09780702 +00000-0 +00000-0 0  9997
2 08035 029.9412 212.6008 0295102 082.4878 280.9153 15.83657105011539
Source of the keplerian elements: AFSPC